• In Romania
  • List of Countries
  • For 7 days
  • Water Temperature
  • Satellite Maps
  • Weather Map
  • Weather Widgets
  • user-avatar
    Login

    Hourly Weather Sankt Polten

    Today, 21 November, Tuesday

    Time Temperature Precipitation Wind Pressure Humidity
    00:00 +2°C° 0.4 mm 3 mps 736 mmHg 85%
    01:00 +3°C° 0 mm 2 mps 736 mmHg 85%
    02:00 +3°C° 0.5 mm 2 mps 735 mmHg 85%
    03:00 +3°C° 0.5 mm 2 mps 735 mmHg 86%
    04:00 +3°C° 0.5 mm 3 mps 735 mmHg 87%
    05:00 +3°C° 0.4 mm 3 mps 735 mmHg 88%
    06:00 +3°C° 0.4 mm 3 mps 735 mmHg 88%
    07:00 +4°C° 0.4 mm 3 mps 735 mmHg 89%
    08:00 +4°C° 0.2 mm 4 mps 735 mmHg 89%
    09:00 +5°C° 0.2 mm 4 mps 735 mmHg 88%
    10:00 +6°C° 0.2 mm 4 mps 735 mmHg 87%
    11:00 +6°C° 0.1 mm 5 mps 735 mmHg 86%
    12:00 +7°C° 0.1 mm 5 mps 734 mmHg 85%
    13:00 +7°C° 0.1 mm 5 mps 734 mmHg 84%
    14:00 +7°C° 0.2 mm 5 mps 734 mmHg 86%
    15:00 +7°C° 0.2 mm 4 mps 734 mmHg 88%
    16:00 +6°C° 0.2 mm 4 mps 734 mmHg 90%
    17:00 +6°C° 0.2 mm 4 mps 734 mmHg 90%
    18:00 +6°C° 0.2 mm 4 mps 734 mmHg 90%
    19:00 +6°C° 0.2 mm 4 mps 734 mmHg 90%
    20:00 +6°C° 0.1 mm 4 mps 734 mmHg 90%
    21:00 +6°C° 0.1 mm 4 mps 735 mmHg 89%
    22:00 +6°C° 0.1 mm 4 mps 735 mmHg 88%
    23:00 +7°C° 0 mm 3 mps 735 mmHg 87%

    Tomorrow, 22 November, Wednesday

    Time Temperature Precipitation Wind Pressure Humidity
    00:00 +7°C° 0 mm 3 mps 735 mmHg 86%
    01:00 +5°C° 0 mm 3 mps 735 mmHg 85%
    02:00 +5°C° 0 mm 3 mps 735 mmHg 84%
    03:00 +5°C° 0 mm 3 mps 735 mmHg 83%
    04:00 +5°C° 0 mm 3 mps 735 mmHg 82%
    05:00 +5°C° 0 mm 3 mps 735 mmHg 82%
    06:00 +4°C° 0 mm 3 mps 735 mmHg 81%
    07:00 +5°C° 0 mm 2 mps 735 mmHg 80%
    08:00 +7°C° 0 mm 2 mps 735 mmHg 77%
    09:00 +8°C° 0 mm 2 mps 735 mmHg 73%
    10:00 +10°C° 0 mm 2 mps 735 mmHg 70%
    11:00 +12°C° 0 mm 2 mps 735 mmHg 68%
    12:00 +13°C° 0 mm 2 mps 735 mmHg 66%
    13:00 +13°C° 0 mm 2 mps 735 mmHg 65%
    14:00 +12°C° 0 mm 2 mps 735 mmHg 69%
    15:00 +10°C° 0 mm 2 mps 734 mmHg 73%
    16:00 +9°C° 0 mm 2 mps 734 mmHg 77%
    17:00 +8°C° 0 mm 2 mps 735 mmHg 77%
    18:00 +7°C° 0 mm 2 mps 735 mmHg 76%
    19:00 +7°C° 0 mm 2 mps 735 mmHg 75%
    20:00 +7°C° 0 mm 1 mps 735 mmHg 74%
    21:00 +7°C° 0 mm 1 mps 735 mmHg 72%
    22:00 +7°C° 0 mm 1 mps 735 mmHg 71%
    23:00 +7°C° 0 mm 1 mps 735 mmHg 70%

    Day after tomorrow, 23 November, Thursday

    Time Temperature Precipitation Wind Pressure Humidity
    00:00 +7°C° 0 mm 1 mps 735 mmHg 69%
    01:00 +7°C° 0 mm 1 mps 735 mmHg 68%
    02:00 +6°C° 0 mm 1 mps 735 mmHg 68%
    03:00 +6°C° 0 mm 1 mps 735 mmHg 68%
    04:00 +6°C° 0 mm 1 mps 734 mmHg 68%
    05:00 +6°C° 0 mm 1 mps 735 mmHg 68%
    06:00 +6°C° 0 mm 1 mps 735 mmHg 69%
    07:00 +5°C° 0 mm 1 mps 735 mmHg 70%
    08:00 +7°C° 0 mm 1 mps 735 mmHg 68%
    09:00 +9°C° 0 mm 1 mps 736 mmHg 67%
    10:00 +9°C° 0 mm 0 mps 736 mmHg 65%
    11:00 +11°C° 0 mm 1 mps 736 mmHg 65%
    12:00 +12°C° 0 mm 1 mps 736 mmHg 64%
    13:00 +12°C° 0 mm 1 mps 736 mmHg 64%
    14:00 +11°C° 0 mm 1 mps 737 mmHg 69%
    15:00 +10°C° 0 mm 1 mps 737 mmHg 74%
    16:00 +8°C° 0 mm 1 mps 737 mmHg 79%
    17:00 +8°C° 0 mm 1 mps 738 mmHg 77%
    18:00 +7°C° 0 mm 1 mps 738 mmHg 75%
    19:00 +7°C° 0 mm 1 mps 738 mmHg 73%
    20:00 +7°C° 0 mm 1 mps 739 mmHg 70%
    21:00 +7°C° 0 mm 1 mps 739 mmHg 68%
    22:00 +7°C° 0 mm 1 mps 739 mmHg 66%
    23:00 +7°C° 0 mm 1 mps 739 mmHg 66%

    24 November, Friday

    Time Temperature Precipitation Wind Pressure Humidity
    00:00 +7°C° 0 mm 1 mps 739 mmHg 66%
    01:00 +7°C° 0 mm 1 mps 739 mmHg 66%
    02:00 +7°C° 0 mm 1 mps 739 mmHg 67%
    03:00 +7°C° 0 mm 1 mps 739 mmHg 68%
    04:00 +7°C° 0 mm 1 mps 739 mmHg 68%
    05:00 +7°C° 0 mm 1 mps 739 mmHg 69%
    06:00 +7°C° 0 mm 1 mps 740 mmHg 71%
    07:00 +7°C° 0 mm 1 mps 740 mmHg 72%
    08:00 +8°C° 0 mm 1 mps 740 mmHg 70%
    09:00 +9°C° 0 mm 1 mps 740 mmHg 69%
    10:00 +11°C° 0 mm 1 mps 740 mmHg 68%
    11:00 +12°C° 0 mm 1 mps 740 mmHg 67%
    12:00 +12°C° 0 mm 1 mps 739 mmHg 67%
    13:00 +13°C° 0 mm 1 mps 739 mmHg 66%
    14:00 +12°C° 0 mm 1 mps 739 mmHg 72%
    15:00 +10°C° 0 mm 1 mps 739 mmHg 78%
    16:00 +9°C° 0 mm 1 mps 738 mmHg 84%
    17:00 +8°C° 0 mm 1 mps 739 mmHg 84%
    18:00 +7°C° 0 mm 1 mps 739 mmHg 83%
    19:00 +7°C° 0 mm 1 mps 739 mmHg 83%
    20:00 +7°C° 0 mm 1 mps 739 mmHg 83%
    21:00 +6°C° 0 mm 1 mps 740 mmHg 82%
    22:00 +6°C° 0 mm 1 mps 740 mmHg 82%
    23:00 +6°C° 0 mm 1 mps 740 mmHg 82%

    25 November, Saturday

    Time Temperature Precipitation Wind Pressure Humidity
    00:00 +6°C° 0 mm 1 mps 740 mmHg 82%
    01:00 +5°C° 0 mm 1 mps 740 mmHg 82%
    02:00 +5°C° 0 mm 1 mps 739 mmHg 82%
    03:00 +5°C° 0 mm 1 mps 739 mmHg 82%
    04:00 +5°C° 0 mm 1 mps 739 mmHg 82%
    05:00 +5°C° 0 mm 1 mps 739 mmHg 82%
    06:00 +5°C° 0 mm 1 mps 738 mmHg 83%
    07:00 +5°C° 0 mm 1 mps 738 mmHg 83%
    08:00 +5°C° 0 mm 2 mps 738 mmHg 81%
    09:00 +6°C° 0 mm 2 mps 738 mmHg 78%
    10:00 +7°C° 0 mm 2 mps 738 mmHg 75%
    11:00 +8°C° 0 mm 2 mps 737 mmHg 74%
    12:00 +9°C° 0 mm 2 mps 736 mmHg 72%
    13:00 +10°C° 0 mm 2 mps 735 mmHg 71%
    14:00 +9°C° 0 mm 2 mps 735 mmHg 76%
    15:00 +8°C° 0 mm 2 mps 734 mmHg 82%
    16:00 +7°C° 0 mm 2 mps 734 mmHg 87%
    17:00 +7°C° 0 mm 2 mps 734 mmHg 87%
    18:00 +6°C° 0 mm 2 mps 734 mmHg 88%
    19:00 +6°C° 0 mm 2 mps 734 mmHg 88%
    20:00 +6°C° 0 mm 2 mps 735 mmHg 86%
    21:00 +7°C° 0 mm 2 mps 736 mmHg 83%
    22:00 +7°C° 0 mm 3 mps 737 mmHg 81%
    23:00 +7°C° 0 mm 3 mps 738 mmHg 81%

    26 November, Sunday

    Time Temperature Precipitation Wind Pressure Humidity
    00:00 +7°C° 0 mm 3 mps 739 mmHg 80%
    01:00 +6°C° 0 mm 4 mps 739 mmHg 80%
    02:00 +6°C° 0.1 mm 4 mps 740 mmHg 81%
    03:00 +5°C° 0.1 mm 3 mps 740 mmHg 81%
    04:00 +5°C° 0.1 mm 3 mps 740 mmHg 82%
    05:00 +5°C° 0.2 mm 3 mps 741 mmHg 83%
    06:00 +5°C° 0.2 mm 3 mps 741 mmHg 84%
    07:00 +6°C° 0.2 mm 2 mps 741 mmHg 85%
    08:00 +5°C° 0.3 mm 3 mps 742 mmHg 83%
    09:00 +5°C° 0.3 mm 3 mps 742 mmHg 81%
    10:00 +5°C° 0.3 mm 3 mps 743 mmHg 80%
    11:00 +5°C° 0.2 mm 4 mps 743 mmHg 77%
    12:00 +5°C° 0.2 mm 4 mps 743 mmHg 74%
    13:00 +5°C° 0.2 mm 4 mps 743 mmHg 71%
    14:00 +4°C° 0.2 mm 4 mps 743 mmHg 72%
    15:00 +4°C° 0.2 mm 4 mps 744 mmHg 74%
    16:00 +3°C° 0.2 mm 4 mps 744 mmHg 76%
    17:00 +3°C° 0.1 mm 3 mps 745 mmHg 78%
    18:00 +2°C° 0.1 mm 3 mps 745 mmHg 80%
    19:00 +2°C° 0.1 mm 3 mps 746 mmHg 82%
    20:00 +1°C° 0 mm 3 mps 746 mmHg 84%
    21:00 +2°C° 0 mm 2 mps 747 mmHg 86%
    22:00 +1°C° 0 mm 2 mps 747 mmHg 88%
    23:00 +1°C° 0 mm 2 mps 747 mmHg 89%
    Show more